Lufkin, TX

1:50 PM CDT on September 24, 2017 (GMT -0500)
Angelina County

Weather History for KLFK - February, 2013

Change the Weather History Date:

Wednesday, February 20, 2013

  Actual Average Record
Temperature  
Mean Temperature 52 °F 54 °F  
Max Temperature 56 °F 65 °F 92 °F (1986)
Min Temperature 47 °F 43 °F 24 °F (1908)
Degree Days  
Heating Degree Days 13 12  
Month to date heating degree days 185 269  
Since 1 July heating degree days 1184 1549  
Cooling Degree Days 0 0  
Month to date cooling degree days 3 0  
Year to date cooling degree days 22 8  
Growing Degree Days 2 (Base 50)    
Moisture  
Dew Point 34 °F    
Average Humidity 52    
Maximum Humidity 66    
Minimum Humidity 38    
Precipitation  
Precipitation 0.01 in 0.14 in 3.06 in (2003)
Month to date precipitation 2.38 2.80  
Year to date precipitation 6.43 6.98  
Snow  
Snow 0.00 in - - ()
Month to date snowfall 0.0  
Since 1 July snowfall 0.0  
Snow Depth 0.00 in    
Sea Level Pressure  
Sea Level Pressure 30.04 in    
Wind  
Wind Speed 10 mph (East)    
Max Wind Speed 23 mph    
Max Gust Speed 31 mph    
Visibility 10 miles    
Events      
T = Trace of Precipitation, MM = Missing Value Source: NWS Daily Summary

Daily Weather History Graph

Daily Weather History Graph

Search for Another Location

Airport or City:

Trip Planner

Search our weather history database for the weather conditions in past years. The results will help you decide how hot, cold, wet, or windy it might be!

Date:

Astronomy

Feb. 20, 2013 Rise Set
Actual Time 6:55 AM CST 6:10 PM CST
Civil Twilight 6:30 AM CST 6:35 PM CST
Nautical Twilight 6:02 AM CST 7:03 PM CST
Astronomical Twilight 5:34 AM CST 7:31 PM CST
Moon 1:43 PM CST (2/20) 3:04 AM CST (2/20)
Length of Visible Light 12h 04m
Length of Day
11h 15m
Waxing Gibbous, 76% of the Moon is Illuminated
Feb 20
Waxing Gibbous
Feb 25
Full
Mar 4
Last Quarter
Mar 11
New
Mar 19
First Quarter

Hourly Weather History & Observations

Time (CST) Temp. Dew Point Humidity Pressure Visibility Wind Dir Wind Speed Gust Speed Precip Events Conditions
12:53 AM 52.0 °F 35.1 °F 53% 30.15 in 10.0 mi East 6.9 mph - N/A   Clear
1:53 AM 52.0 °F 34.0 °F 50% 30.17 in 10.0 mi ENE 3.5 mph - N/A   Mostly Cloudy
2:53 AM 50.0 °F 36.0 °F 59% 30.15 in 10.0 mi ENE 4.6 mph - N/A   Mostly Cloudy
3:53 AM 50.0 °F 37.0 °F 61% 30.14 in 10.0 mi East 5.8 mph - N/A   Overcast
4:53 AM 50.0 °F 35.1 °F 57% 30.14 in 10.0 mi East 8.1 mph - N/A   Overcast
5:53 AM 50.0 °F 35.6 °F 58% 30.16 in 10.0 mi East 6.9 mph - N/A   Overcast
6:53 AM 50.0 °F 34.0 °F 54% 30.13 in 10.0 mi East 12.7 mph 17.3 mph N/A   Overcast
7:53 AM 48.0 °F 37.0 °F 66% 30.14 in 10.0 mi East 10.4 mph - 0.00 in   Overcast
8:53 AM 50.0 °F 35.1 °F 57% 30.16 in 10.0 mi ESE 8.1 mph - 0.01 in   Mostly Cloudy
9:53 AM 52.0 °F 32.0 °F 47% 30.14 in 10.0 mi ESE 13.8 mph 23.0 mph N/A   Overcast
10:53 AM 55.9 °F 30.9 °F 39% 30.10 in 10.0 mi East 12.7 mph 28.8 mph N/A   Mostly Cloudy
11:53 AM 53.1 °F 30.9 °F 43% 30.13 in 10.0 mi East 9.2 mph - N/A   Overcast
12:53 PM 54.0 °F 30.9 °F 41% 30.06 in 10.0 mi East 13.8 mph - N/A   Overcast
1:53 PM 54.0 °F 28.0 °F 37% 30.02 in 10.0 mi East 12.7 mph 23.0 mph N/A   Overcast
2:53 PM 54.0 °F 30.9 °F 41% 30.00 in 10.0 mi East 9.2 mph - 0.00 in   Overcast
3:53 PM 54.0 °F 30.9 °F 41% 29.98 in 10.0 mi ENE 6.9 mph - N/A   Overcast
4:53 PM 54.0 °F 32.0 °F 43% 29.96 in 10.0 mi East 10.4 mph - N/A   Overcast
5:53 PM 54.0 °F 33.1 °F 45% 29.96 in 10.0 mi East 11.5 mph - N/A   Overcast
6:10 PM 55.4 °F 33.8 °F 44% 29.96 in 10.0 mi ESE 10.4 mph - N/A   Overcast
6:53 PM 55.0 °F 35.1 °F 47% 29.93 in 10.0 mi East 12.7 mph - N/A   Overcast
7:53 PM 55.9 °F 35.1 °F 45% 29.92 in 10.0 mi East 17.3 mph 23.0 mph N/A   Overcast
8:53 PM 55.9 °F 36.0 °F 47% 29.91 in 10.0 mi ESE 12.7 mph - N/A   Overcast
9:53 PM 55.9 °F 36.0 °F 47% 29.91 in 10.0 mi East 9.2 mph - N/A   Overcast
10:53 PM 55.9 °F 37.0 °F 49% 29.89 in 10.0 mi East 12.7 mph - N/A   Overcast
11:53 PM 55.9 °F 39.0 °F 53% 29.85 in 10.0 mi ESE 13.8 mph - N/A   Overcast